Simultaneous Nadir Overpasses (SNOs) Predictions

Prediction of SNOs between AQUA and METOP-A Satellite Orbit:

Table of predicted SNOs for the next 14.0 days since TLE Epoch: 7/28/2017
Index Date (AQUA) Time (AQUA) Lat,Lon (AQUA) SZA (AQUA ) Date (METOP-A) Time (METOP-A) Lat,Lon (METOP-A) SZA (METOP-A ) Distance(km) Time Diff (sec)
1 07/29/2017 17:03:15 -73.91, 98.20 124.60 07/29/2017 17:02:31 -73.91, 98.19 124.59 0.41 44
2 07/29/2017 17:52:43 73.96, -94.29 55.47 07/29/2017 17:53:09 73.98, -94.30 55.49 2.13 26
3 08/01/2017 12:37:31 -73.93, 164.58 123.88 08/01/2017 12:36:51 -73.94, 164.67 123.87 2.92 40
4 08/01/2017 13:26:59 73.99, -27.91 56.19 08/01/2017 13:27:29 74.01, -27.83 56.21 3.40 30
5 08/04/2017 08:11:46 -73.91,-128.93 123.18 08/04/2017 08:11:12 -73.92,-128.97 123.15 2.21 34
6 08/04/2017 09:01:13 73.97, 38.58 56.90 08/04/2017 09:01:49 73.99, 38.53 56.92 2.66 36
7 08/07/2017 03:46:01 -73.94, -62.56 122.37 08/07/2017 03:45:31 -73.95, -62.49 122.36 2.82 30
8 08/07/2017 04:35:29 74.00, 104.93 57.71 08/07/2017 04:36:09 74.01, 105.00 57.71 2.24 40
9 08/09/2017 23:20:16 -73.93, 3.90 121.59 08/09/2017 23:19:52 -73.93, 3.87 121.58 1.09 24
10 08/10/2017 00:09:44 73.99, 171.39 58.50 08/10/2017 00:10:30 73.99, 171.34 58.49 1.62 46




NCC Satellite Simultaneous Nadir Overpasses (SNOs) Prediction Service
